Voltar ao catálogo

BREEZE-M DEB

LostHEO
NORAD 38616·DEBRIS·🇷🇺 Russia

Lançado Mar 14, 2008 de Baikonur Cosmodrome

Loading…

Próximas Passagens (próximas 24 horas)

TLE

ObsoletoSource: Space-Track

Época: Nov 1, 2013, 19:31 UTC

1 38616U 08011BP  13305.81375367 +.00252922 +00000-0 +24978-1 0  9999
2 38616 050.2477 120.3216 4277691 226.3373 100.1233 06.89629087046092

Acompanhe BREEZE-M DEB em tempo real com AllMySat

Download on the App Store